| time (UTC) | temp C | wind direction | speed KPH | gust KPH | rain 1hr cm | rain 24hr cm | rain mn cm | humidity % | barometer mb |
| 20260505035304 | 17 | 201 | 4.8 | 14.5 | 0.00 | 0.00 | 0.00 | 44 | 1003.8 |
| 20260505034803 | 17 | 218 | 3.2 | 12.9 | 0.00 | 0.00 | 0.00 | 44 | 1003.8 |
| 20260505034303 | 17 | 218 | 4.8 | 12.9 | 0.00 | 0.00 | 0.00 | 44 | 1003.7 |
| 20260505033805 | 17 | 210 | 4.8 | 14.5 | 0.00 | 0.00 | 0.00 | 44 | 1003.6 |
| 20260505033304 | 18 | 216 | 4.8 | 14.5 | 0.00 | 0.00 | 0.00 | 43 | 1003.8 |
| 20260505032805 | 18 | 187 | 4.8 | 19.3 | 0.00 | 0.00 | 0.00 | 43 | 1003.7 |
| 20260505032304 | 18 | 219 | 6.4 | 20.9 | 0.00 | 0.00 | 0.00 | 43 | 1003.6 |
| 20260505031804 | 18 | 212 | 8.0 | 19.3 | 0.00 | 0.00 | 0.00 | 42 | 1003.8 |
| 20260505031304 | 18 | 179 | 8.0 | 19.3 | 0.00 | 0.00 | 0.00 | 42 | 1003.7 |
| 20260505030305 | 18 | 209 | 6.4 | 19.3 | 0.00 | 0.00 | 0.00 | 42 | 1003.6 |
| 20260505025305 | 18 | 206 | 8.0 | 20.9 | 0.00 | 0.00 | 0.00 | 42 | 1003.7 |
| 20260505024803 | 18 | 206 | 8.0 | 20.9 | 0.00 | 0.00 | 0.00 | 42 | 1003.7 |
| 20260505024303 | 18 | 223 | 6.4 | 20.9 | 0.00 | 0.00 | 0.00 | 42 | 1003.7 |
| 20260505023804 | 18 | 193 | 9.7 | 27.4 | 0.00 | 0.00 | 0.00 | 41 | 1003.8 |
| 20260505022304 | 18 | 204 | 4.8 | 12.9 | 0.00 | 0.00 | 0.00 | 42 | 1003.9 |
| 20260505021804 | 17 | 169 | 3.2 | 11.3 | 0.00 | 0.00 | 0.00 | 43 | 1003.9 |
| 20260505021304 | 17 | 224 | 3.2 | 11.3 | 0.00 | 0.00 | 0.00 | 43 | 1003.8 |
| 20260505020305 | 17 | 237 | 3.2 | 8.0 | 0.00 | 0.00 | 0.00 | 44 | 1003.8 |
| 20260505015305 | 17 | 195 | 6.4 | 11.3 | 0.00 | 0.00 | 0.00 | 42 | 1003.8 |
| 20260505014804 | 17 | 167 | 3.2 | 12.9 | 0.00 | 0.00 | 0.00 | 42 | 1003.8 |
| 20260505014305 | 17 | 157 | 4.8 | 9.7 | 0.00 | 0.03 | 0.00 | 41 | 1003.7 |
| 20260505013804 | 17 | 176 | 3.2 | 9.7 | 0.00 | 0.03 | 0.00 | 41 | 1003.7 |
| 20260505013303 | 17 | 163 | 3.2 | 8.0 | 0.00 | 0.03 | 0.00 | 47 | 1003.9 |
| 20260505012804 | 16 | 186 | 1.6 | 4.8 | 0.00 | 0.05 | 0.00 | 52 | 1003.9 |
| 20260505012304 | 16 | 131 | 3.2 | 4.8 | 0.00 | 0.05 | 0.00 | 48 | 1003.8 |
| 20260505011804 | 16 | 81 | 1.6 | 3.2 | 0.00 | 0.05 | 0.00 | 47 | 1004.0 |
| 20260505011304 | 16 | 126 | 0.0 | 3.2 | 0.00 | 0.05 | 0.00 | 47 | 1003.9 |
| 20260505010805 | 16 | 111 | 3.2 | 3.2 | 0.00 | 0.05 | 0.00 | 46 | 1003.9 |
| 20260505010304 | 16 | 128 | 1.6 | 3.2 | 0.00 | 0.05 | 0.00 | 49 | 1003.8 |
| 20260505005806 | 16 | 105 | 1.6 | 3.2 | 0.00 | 0.05 | 0.00 | 48 | 1003.9 |
| 20260505005304 | 16 | 120 | 1.6 | 3.2 | 0.00 | 0.05 | 0.00 | 47 | 1003.9 |
| 20260505004804 | 17 | 106 | 1.6 | 3.2 | 0.00 | 0.05 | 0.00 | 46 | 1003.9 |
| 20260505004304 | 17 | 108 | 1.6 | 3.2 | 0.00 | 0.05 | 0.00 | 46 | 1003.8 |
| 20260505003804 | 17 | 119 | 1.6 | 3.2 | 0.00 | 0.08 | 0.00 | 46 | 1003.9 |
| 20260505002304 | 18 | 121 | 0.0 | 3.2 | 0.00 | 0.08 | 0.00 | 39 | 1003.8 |
| 20260505001304 | 19 | 138 | 0.0 | 1.6 | 0.00 | 0.08 | 0.00 | 37 | 1003.8 |
| 20260505000302 | 20 | 138 | 0.0 | 3.2 | 0.00 | 0.08 | 0.00 | 34 | 1003.7 |
| 20260504235804 | 21 | 182 | 1.6 | 3.2 | 0.00 | 0.08 | 0.00 | 32 | 1003.7 |
| 20260504234803 | 21 | 166 | 1.6 | 4.8 | 0.00 | 0.08 | 0.00 | 30 | 1003.6 |
| 20260504234304 | 21 | 185 | 3.2 | 4.8 | 0.00 | 0.08 | 0.00 | 30 | 1003.6 |
| 20260504233802 | 22 | 201 | 1.6 | 8.0 | 0.00 | 0.08 | 0.00 | 30 | 1003.6 |
| 20260504233303 | 22 | 198 | 3.2 | 8.0 | 0.00 | 0.08 | 0.00 | 29 | 1003.6 |
| 20260504232802 | 22 | 206 | 4.8 | 12.9 | 0.00 | 0.08 | 0.00 | 28 | 1003.4 |
| 20260504231803 | 22 | 213 | 8.0 | 11.3 | 0.00 | 0.08 | 0.00 | 27 | 1003.5 |
| 20260504231304 | 23 | 207 | 6.4 | 14.5 | 0.00 | 0.08 | 0.00 | 28 | 1003.5 |
| 20260504230803 | 23 | 204 | 3.2 | 16.1 | 0.00 | 0.08 | 0.00 | 28 | 1003.5 |
| 20260504230302 | 23 | 242 | 8.0 | 16.1 | 0.00 | 0.08 | 0.00 | 26 | 1003.7 |
| 20260504225804 | 23 | 229 | 9.7 | 12.9 | 0.00 | 0.08 | 0.00 | 28 | 1003.7 |
| 20260504225304 | 23 | 211 | 4.8 | 20.9 | 0.00 | 0.08 | 0.00 | 28 | 1003.7 |
| 20260504224303 | 23 | 217 | 12.9 | 20.9 | 0.00 | 0.08 | 0.00 | 27 | 1003.9 |
| 20260504223802 | 23 | 235 | 6.4 | 19.3 | 0.00 | 0.08 | 0.00 | 28 | 1003.8 |
| 20260504223303 | 23 | 225 | 11.3 | 19.3 | 0.00 | 0.08 | 0.00 | 29 | 1003.7 |
| 20260504222304 | 23 | 253 | 9.7 | 19.3 | 0.00 | 0.08 | 0.00 | 28 | 1003.8 |
| 20260504221804 | 23 | 210 | 8.0 | 20.9 | 0.00 | 0.08 | 0.00 | 29 | 1003.7 |
| 20260504220802 | 23 | 218 | 4.8 | 24.1 | 0.00 | 0.08 | 0.00 | 30 | 1004.0 |
| 20260504220302 | 22 | 237 | 8.0 | 32.2 | 0.00 | 0.08 | 0.00 | 30 | 1004.0 |
| 20260504215802 | 23 | 247 | 9.7 | 22.5 | 0.00 | 0.08 | 0.00 | 29 | 1004.0 |
| 20260504215304 | 23 | 205 | 12.9 | 22.5 | 0.00 | 0.08 | 0.00 | 29 | 1004.0 |
| 20260504214803 | 23 | 212 | 8.0 | 24.1 | 0.00 | 0.08 | 0.00 | 30 | 1004.0 |
| 20260504214303 | 22 | 231 | 20.9 | 29.0 | 0.00 | 0.08 | 0.00 | 30 | 1003.9 |
| 20260504213803 | 22 | 228 | 9.7 | 19.3 | 0.00 | 0.08 | 0.00 | 32 | 1003.9 |
| 20260504213303 | 22 | 279 | 9.7 | 27.4 | 0.00 | 0.08 | 0.00 | 30 | 1004.1 |
| 20260504212803 | 22 | 207 | 17.7 | 27.4 | 0.00 | 0.08 | 0.00 | 30 | 1004.2 |
| 20260504211803 | 22 | 238 | 14.5 | 38.6 | 0.00 | 0.08 | 0.00 | 30 | 1004.2 |
| 20260504211302 | 22 | 239 | 11.3 | 38.6 | 0.00 | 0.08 | 0.00 | 32 | 1004.0 |
| 20260504210303 | 23 | 207 | 14.5 | 29.0 | 0.00 | 0.08 | 0.00 | 30 | 1004.0 |
| 20260504205803 | 23 | 212 | 9.7 | 25.7 | 0.00 | 0.08 | 0.00 | 31 | 1004.0 |
| 20260504205304 | 23 | 279 | 14.5 | 37.0 | 0.00 | 0.08 | 0.00 | 30 | 1004.0 |
| 20260504204303 | 23 | 240 | 20.9 | 35.4 | 0.00 | 0.08 | 0.00 | 32 | 1004.2 |
| 20260504203302 | 22 | 220 | 6.4 | 24.1 | 0.00 | 0.08 | 0.00 | 32 | 1004.3 |
| 20260504202803 | 23 | 251 | 12.9 | 35.4 | 0.00 | 0.08 | 0.00 | 32 | 1004.2 |
| 20260504201804 | 22 | 214 | 19.3 | 25.7 | 0.00 | 0.08 | 0.00 | 32 | 1004.4 |
| 20260504201303 | 22 | 273 | 8.0 | 27.4 | 0.00 | 0.08 | 0.00 | 34 | 1004.4 |
| 20260504200803 | 22 | 246 | 16.1 | 27.4 | 0.00 | 0.08 | 0.00 | 32 | 1004.6 |
| 20260504200303 | 22 | 259 | 16.1 | 33.8 | 0.00 | 0.08 | 0.00 | 33 | 1004.8 |
| 20260504195803 | 22 | 228 | 17.7 | 33.8 | 0.00 | 0.08 | 0.00 | 33 | 1004.8 |
| 20260504195304 | 22 | 248 | 14.5 | 41.8 | 0.00 | 0.08 | 0.00 | 34 | 1004.6 |
| 20260504194802 | 22 | 243 | 12.9 | 41.8 | 0.00 | 0.08 | 0.00 | 34 | 1004.8 |
| 20260504193303 | 22 | 218 | 19.3 | 32.2 | 0.00 | 0.08 | 0.00 | 35 | 1005.1 |
| 20260504192804 | 21 | 262 | 9.7 | 27.4 | 0.00 | 0.08 | 0.00 | 37 | 1005.1 |
| 20260504192304 | 22 | 254 | 14.5 | 27.4 | 0.00 | 0.08 | 0.00 | 36 | 1005.3 |
| 20260504191803 | 22 | 274 | 19.3 | 29.0 | 0.00 | 0.08 | 0.00 | 35 | 1005.1 |
| 20260504191303 | 22 | 258 | 11.3 | 33.8 | 0.00 | 0.08 | 0.00 | 36 | 1005.2 |
| 20260504190804 | 22 | 226 | 17.7 | 37.0 | 0.00 | 0.08 | 0.00 | 36 | 1005.3 |
| 20260504190303 | 22 | 229 | 22.5 | 37.0 | 0.00 | 0.08 | 0.00 | 37 | 1005.3 |
| 20260504185803 | 21 | 256 | 16.1 | 37.0 | 0.00 | 0.08 | 0.00 | 36 | 1005.5 |
| 20260504185304 | 22 | 234 | 19.3 | 38.6 | 0.00 | 0.08 | 0.00 | 37 | 1005.2 |
| 20260504184804 | 21 | 220 | 19.3 | 46.7 | 0.00 | 0.08 | 0.00 | 37 | 1005.3 |
| 20260504184303 | 21 | 225 | 29.0 | 45.1 | 0.00 | 0.08 | 0.00 | 36 | 1005.5 |
| 20260504183802 | 22 | 262 | 11.3 | 33.8 | 0.00 | 0.08 | 0.00 | 37 | 1005.5 |
| 20260504183303 | 22 | 257 | 16.1 | 46.7 | 0.00 | 0.08 | 0.00 | 36 | 1005.5 |
| 20260504182804 | 21 | 239 | 25.7 | 46.7 | 0.00 | 0.08 | 0.00 | 38 | 1005.5 |
| 20260504182304 | 21 | 262 | 16.1 | 35.4 | 0.00 | 0.08 | 0.00 | 38 | 1005.6 |
| 20260504181803 | 21 | 263 | 19.3 | 29.0 | 0.00 | 0.08 | 0.00 | 37 | 1005.6 |
| 20260504181303 | 21 | 289 | 17.7 | 45.1 | 0.00 | 0.08 | 0.00 | 39 | 1005.8 |
| 20260504180803 | 21 | 202 | 19.3 | 45.1 | 0.00 | 0.08 | 0.00 | 40 | 1005.8 |
| 20260504180304 | 21 | 224 | 22.5 | 35.4 | 0.00 | 0.08 | 0.00 | 38 | 1005.9 |
| 20260504175803 | 21 | 220 | 16.1 | 32.2 | 0.00 | 0.08 | 0.00 | 40 | 1005.8 |
| 20260504175304 | 21 | 237 | 11.3 | 32.2 | 0.00 | 0.08 | 0.00 | 39 | 1005.9 |
| 20260504174802 | 20 | 238 | 17.7 | 27.4 | 0.00 | 0.08 | 0.00 | 39 | 1006.0 |
| 20260504174302 | 20 | 241 | 16.1 | 38.6 | 0.00 | 0.08 | 0.00 | 40 | 1006.0 |
| 20260504173802 | 20 | 273 | 14.5 | 32.2 | 0.00 | 0.08 | 0.00 | 40 | 1005.9 |
| 20260504173303 | 20 | 233 | 8.0 | 38.6 | 0.00 | 0.08 | 0.00 | 40 | 1006.0 |
| 20260504172803 | 20 | 230 | 30.6 | 38.6 | 0.00 | 0.08 | 0.00 | 40 | 1006.0 |
| 20260504172304 | 20 | 225 | 11.3 | 27.4 | 0.00 | 0.08 | 0.00 | 39 | 1006.2 |
| 20260504171803 | 20 | 280 | 14.5 | 33.8 | 0.00 | 0.08 | 0.00 | 40 | 1006.1 |
| 20260504171303 | 19 | 249 | 19.3 | 45.1 | 0.00 | 0.08 | 0.00 | 40 | 1006.1 |
| 20260504170303 | 20 | 216 | 17.7 | 35.4 | 0.00 | 0.08 | 0.00 | 41 | 1006.3 |
| 20260504160304 | 18 | 219 | 20.9 | 37.0 | 0.00 | 0.08 | 0.00 | 42 | 1006.8 |
| 20260504150804 | 16 | 220 | 16.1 | 35.4 | 0.00 | 0.08 | 0.00 | 43 | 1007.3 |
| 20260504150302 | 17 | 182 | 12.9 | 25.7 | 0.00 | 0.08 | 0.00 | 44 | 1007.2 |
| 20260504141303 | 16 | 217 | 14.5 | 38.6 | 0.00 | 0.08 | 0.00 | 44 | 1007.3 |
| 20260504140802 | 16 | 262 | 11.3 | 35.4 | 0.00 | 0.08 | 0.00 | 44 | 1007.4 |
| 20260504140305 | 15 | 239 | 19.3 | 35.4 | 0.00 | 0.08 | 0.00 | 45 | 1007.4 |
| 20260504130803 | 13 | 247 | 14.5 | 27.4 | 0.00 | 0.08 | 0.00 | 48 | 1007.8 |
| 20260504130303 | 12 | 223 | 11.3 | 25.7 | 0.00 | 0.08 | 0.00 | 48 | 1007.6 |
| 20260504110303 | 11 | 251 | 14.5 | 41.8 | 0.00 | 0.08 | 0.00 | 48 | 1007.8 |
| 20260504100303 | 11 | 215 | 9.7 | 27.4 | 0.00 | 0.08 | 0.00 | 50 | 1007.8 |
| 20260504081803 | 11 | 210 | 6.4 | 19.3 | 0.00 | 0.08 | 0.00 | 53 | 1008.3 |
| 20260504081304 | 11 | 212 | 8.0 | 22.5 | 0.00 | 0.08 | 0.00 | 53 | 1008.1 |
| 20260504080803 | 11 | 236 | 11.3 | 24.1 | 0.00 | 0.08 | 0.00 | 52 | 1008.2 |
| 20260504080303 | 11 | 223 | 9.7 | 29.0 | 0.00 | 0.08 | 0.00 | 51 | 1008.4 |
| 20260504070304 | 10 | 220 | 4.8 | 16.1 | 0.00 | 0.08 | 0.00 | 56 | 1008.4 |
| 20260504050303 | 8 | 102 | 3.2 | 4.8 | 0.00 | 0.08 | 0.00 | 87 | 1009.1 |
| 20260504045803 | 8 | 93 | 3.2 | 4.8 | 0.00 | 0.08 | 0.00 | 87 | 1009.1 |
| 20260504045304 | 8 | 92 | 3.2 | 3.2 | 0.00 | 0.08 | 0.00 | 87 | 1009.0 |
| 20260504044303 | 8 | 79 | 3.2 | 3.2 | 0.00 | 0.08 | 0.00 | 86 | 1009.2 |
| 20260504043803 | 8 | 82 | 3.2 | 4.8 | 0.00 | 0.08 | 0.00 | 86 | 1009.2 |
| 20260504043303 | 8 | 70 | 3.2 | 4.8 | 0.00 | 0.08 | 0.00 | 85 | 1009.3 |
| 20260504042803 | 8 | 74 | 3.2 | 4.8 | 0.00 | 0.08 | 0.00 | 85 | 1009.1 |
| 20260504042304 | 8 | 80 | 3.2 | 4.8 | 0.00 | 0.08 | 0.00 | 84 | 1009.2 |
| 20260504041803 | 8 | 105 | 3.2 | 4.8 | 0.00 | 0.08 | 0.00 | 84 | 1009.1 |
| 20260504041303 | 8 | 87 | 4.8 | 4.8 | 0.00 | 0.08 | 0.00 | 84 | 1009.2 |
| 20260504040803 | 8 | 80 | 3.2 | 4.8 | 0.00 | 0.08 | 0.00 | 83 | 1009.3 |
| 20260504035804 | 8 | 67 | 3.2 | 4.8 | 0.00 | 0.08 | 0.08 | 83 | 1009.2 |